This is the latest recevied weather packets stored in our database for station/object W4OTS. If no packets are shown the sender has not sent any weather packets the latest 10 day(s).
| Time | Temp. | Humidity | Pressure | Rain* | Wind** | Luminosity | Snow |
|---|---|---|---|---|---|---|---|
| 1777817251 | 13.33° C | 49% | 1022.4 hPa | 0 mm | - | 642 W/m² | - |
| 1777816948 | 13.33° C | 51% | 1022.4 hPa | 0 mm | - | 583 W/m² | - |
| 1777816644 | 13.33° C | 48% | 1022.3 hPa | 0 mm | - | 627 W/m² | - |
| 1777816341 | 12.78° C | 47% | 1022.1 hPa | 0 mm | - | 592 W/m² | - |
| 1777816039 | 12.78° C | 49% | 1022.2 hPa | 0 mm | - | 597 W/m² | - |
| 1777815736 | 12.78° C | 49% | 1022.4 hPa | 0 mm | - | 567 W/m² | - |
| 1777815434 | 12.78° C | 50% | 1022.1 hPa | 0 mm | - | 540 W/m² | - |
| 1777815131 | 12.78° C | 52% | 1022.2 hPa | 0 mm | - | 510 W/m² | - |
| 1777814827 | 12.22° C | 52% | 1022.1 hPa | 0 mm | - | 449 W/m² | - |
| 1777814523 | 12.22° C | 53% | 1021.9 hPa | 0 mm | - | 462 W/m² | - |
| 1777814221 | 11.67° C | 56% | 1022 hPa | 0 mm | - | 376 W/m² | - |
| 1777813917 | 11.11° C | 58% | 1022.1 hPa | 0 mm | - | 393 W/m² | - |
| 1777813615 | 11.11° C | 60% | 1022.1 hPa | 0 mm | - | 342 W/m² | - |
| 1777813313 | 11.11° C | 62% | 1022.2 hPa | 0 mm | - | 49 W/m² | - |
| 1777813010 | 10.56° C | 61% | 1022.1 hPa | 0 mm | - | 48 W/m² | - |
| 1777812708 | 10.56° C | 63% | 1022.2 hPa | 0 mm | - | 47 W/m² | - |
| 1777812404 | 10.56° C | 64% | 1022.1 hPa | 0 mm | - | 46 W/m² | - |
| 1777812102 | 10° C | 65% | 1022 hPa | 0 mm | - | 45 W/m² | - |
| 1777811800 | 10° C | 66% | 1021.9 hPa | 0 mm | - | 44 W/m² | - |
| 1777811497 | 10° C | 68% | 1021.9 hPa | 0 mm | - | 43 W/m² | - |
| 1777811193 | 9.44° C | 69% | 1022.1 hPa | 0 mm | - | 42 W/m² | - |
| 1777810891 | 9.44° C | 70% | 1022.1 hPa | 0 mm | - | 41 W/m² | - |
| 1777810586 | 8.89° C | 72% | 1021.9 hPa | 0 mm | - | 41 W/m² | - |
| 1777810284 | 8.33° C | 74% | 1021.8 hPa | 0 mm | - | 39 W/m² | - |
| 1777809979 | 7.78° C | 81% | 1021.8 hPa | 0 mm | - | 38 W/m² | - |
* Rain latest hour (hover to see other rain measurements)
** Current wind speed in m/s (hover to see current wind gust speed)